Weather observations for the past three days for
Safford, Safford Municipal Airport
Imperial (Metric)
Date Time (mst) Wind (mph) Vis. (mi.) Weather Sky Cond. Temperature (ºF) Relative Humidity Wind Chill (°F) Heat Index (°F) Pressure Precipitation (in)
Air Dwpt 6 hour altimeter (in) sea level (mb) 1 hr 3 hr 6 hr
Max. Min.
12 02:51 NE 5 10.00 Fair CLR 73.9 46.9 38% 30.03 1010.7
12 01:51 S 6 10.00 Fair CLR 75.9 48.9 39% 78 30.02 1010.4
12 00:51 SE 10 10.00 Fair CLR 78.1 48 35% 78 30.03 1010.4
11 23:51 E 9 10.00 Fair CLR 78.1 46 32% 78 30.03 1010.5
11 22:51 N 5 10.00 Fair CLR 79 46.9 90 79 32% 79 30.03 1010.5
11 21:51 S 7 10.00 Fair CLR 82.9 46 27% 81 30.01 1009.9
11 20:51 NE 6 10.00 Fair CLR 84.9 46.9 27% 82 29.97 1008.6
11 13:51 Calm 10.00 Fair CLR 100.9 48.9 17% 98 29.96 1007.8
11 12:51 Vrbl 7 10.00 Fair CLR 100.9 48.9 17% 98 30 1009.0
11 11:51 Vrbl 3 10.00 A Few Clouds FEW036 97 48.9 20% 94 30.02 1009.9
11 10:51 S 5 8.00 Overcast OVC035 95 48.9 96.1 82 21% 92 30.06 1011.1
11 09:51 S 8 G 17 8.00 Overcast OVC033 91.9 48.9 23% 89 30.07 1011.6
11 08:51 S 9 10.00 Overcast BKN025 OVC036 91 50 25% 88 30.07 1011.4
11 07:51 E 9 10.00 Overcast OVC024 89.1 50 26% 86 30.08 1012.0
11 06:51 E 13 8.00 Overcast OVC021 86 50 29% 84 30.08 1011.7
11 05:51 E 10 7.00 Overcast OVC045 82.9 48.9 31% 81 30.06 1011.0
11 04:51 NE 10 9.00 Overcast OVC045 82.9 48.9 91 82 31% 81 30.04 1010.5
11 03:51 E 12 8.00 Overcast OVC047 82.9 48.9 31% 81 30.03 1010.1
11 02:51 E 15 8.00 Overcast OVC047 82.9 50 32% 81 30.03 1010.0
11 01:51 E 10 10.00 Overcast OVC037 84 48.9 30% 82 30.02 1009.8
11 00:51 SE 8 7.00 Overcast OVC028 84.9 50 30% 83 30.02 1010.0
10 23:51 SE 13 5.00 Overcast with Haze OVC036 89.1 50 26% 86 30.04 1010.3
10 22:51 SE 17 G 29 5.00 A Few Clouds with Haze FEW024 91 50 104 90 25% 88 30.02 1009.9
10 21:51 E 3 10.00 Fair CLR 91.9 41 17% 88 29.96 1007.6
10 20:51 Calm 10.00 Fair CLR 96.1 39 14% 92 29.91 1006.0
10 19:51 S 3 10.00 Fair CLR 97 41 14% 93 29.87 1004.9
10 18:51 SW 6 10.00 Fair CLR 102 39 11% 97 29.87 1004.6
10 17:51 W 8 10.00 Fair CLR 104 43 12% 99 29.86 1004.5
10 16:51 Calm 10.00 Fair CLR 104 44.1 106 96.1 13% 100 29.87 1004.9
10 15:51 Vrbl 5 10.00 Fair CLR 102.9 44.1 13% 99 29.9 1005.9
10 14:51 Vrbl 6 10.00 Fair CLR 102.9 46.9 15% 99 29.93 1006.7
10 13:51 Vrbl 7 10.00 Fair CLR 100.9 46.9 16% 97 29.97 1008.0
10 12:51 Calm 10.00 Fair CLR 99 50 19% 96 29.99 1008.9
10 11:51 Vrbl 3 10.00 Fair CLR 98.1 50 20% 95 30.02 1009.7
10 10:51 SE 9 10.00 Fair CLR 96.1 48 97 75 19% 93 30.04 1010.8
10 09:51 E 10 10.00 Fair CLR 93.9 48 21% 90 30.07 1011.5
10 08:51 E 8 10.00 Fair CLR 89.1 48 24% 86 30.08 1012.0
10 07:51 E 8 10.00 Fair CLR 84.9 48 28% 83 30.08 1012.3
10 06:51 E 12 10.00 Fair CLR 82 48.9 32% 81 30.07 1011.6
10 05:51 SE 3 10.00 Fair CLR 75.9 46.9 36% 78 30.03 1010.3
10 04:51 E 5 10.00 Fair CLR 78.1 46 86 77 32% 78 30 1009.4
10 03:51 E 7 10.00 Fair CLR 79 46.9 32% 79 30 1009.2
10 02:51 E 8 10.00 Fair CLR 82.9 46.9 28% 81 29.99 1008.6
10 01:51 E 8 10.00 Fair CLR 84 48 29% 82 29.98 1008.5
10 00:51 E 10 10.00 Fair CLR 84 46.9 27% 82 29.98 1008.4
09 23:51 E 12 10.00 Fair CLR 86 48 27% 83 29.98 1008.6
09 22:51 E 10 10.00 Fair CLR 86 48 102.9 86 27% 83 29.99 1009.1
09 21:51 SE 15 G 22 10.00 Fair CLR 90 45 21% 86 29.96 1008.0
09 20:51 E 14 10.00 Fair CLR 91.9 43 18% 88 29.93 1006.9
09 19:51 Vrbl 3 10.00 Fair CLR 91.9 39.9 16% 88 29.9 1005.7
09 18:51 NW 6 10.00 Fair CLR 97 41 14% 93 29.87 1004.9
09 17:51 W 15 G 24 10.00 Fair CLR 102.9 32 8% 97 29.84 1003.8
09 15:51 N 28 G 43 10.00 A Few Clouds and Windy FEW022 100.9 41 13% 96 29.89 1005.2
09 14:51 NW 5 10.00 Fair CLR 105.1 43 12% 100 29.89 1005.2
09 13:51 W 3 10.00 Fair CLR 100.9 48.9 17% 98 29.92 1006.3
09 12:51 Vrbl 3 10.00 Fair CLR 102 53.1 19% 100 29.95 1007.2
09 11:51 Vrbl 6 10.00 Fair CLR 99 55.9 24% 98 29.98 1008.3
09 10:51 S 10 10.00 Fair CLR 96.1 57 96.1 80.1 27% 95 30 1009.0
09 09:51 S 7 10.00 Fair CLR 91.9 57 31% 91 30.01 1009.8
09 08:51 E 9 G 17 10.00 Fair CLR 90 57 33% 89 30.02 1010.0
09 07:51 SE 13 10.00 Fair CLR 87.1 57 36% 86 30.03 1010.0
09 06:51 E 13 10.00 Fair CLR 84 57 40% 83 30.01 1009.5
09 05:51 E 15 10.00 Fair CLR 82.9 55.9 40% 82 29.99 1008.4
09 04:51 E 12 10.00 Fair CLR 82.9 55 91.9 82.9 38% 82 29.97 1007.8
09 03:51 E 12 10.00 Fair CLR 84 55 37% 83 29.96 1007.3
Date Time (mst) Wind (mph) Vis. (mi.) Weather Sky Cond. Air Dwpt Max. Min. Relative Humidity Wind Chill (°F) Heat Index (°F) altimeter (in) sea level (mb) 1 hr 3 hr 6 hr
6 hour
Temperature (ºF) Pressure Precipitation (in)